{"data":{"norad_id":65126,"epoch":"2026-09-21T22:20:24.369504Z","epoch_age_seconds":41510,"freshness":"FRESH","line1":"1 65126U 25170H   26264.93083761  .00000841  00000+0  13174-3 0  9993","line2":"2 65126  49.9668  39.6979 0020328 353.4735   6.5934 14.82384051 61406","mean_motion":14.82384051,"eccentricity":0.0020328,"inclination_deg":49.9668,"raan_deg":39.6979,"arg_perigee_deg":353.4735,"mean_anomaly_deg":6.5934,"bstar":0.00013174,"rev_number":6140,"period_min":97.140818469316,"perigee_km":607.57944153891,"apogee_km":636.03842171854,"semimajor_km":6999.9459316287,"source":"CELESTRAK","updated_at":"2026-09-22T09:00:30.146684Z"}}